This is the latest recevied weather packets stored in our database for station/object N1ORT. If no packets are shown the sender has not sent any weather packets the latest 10 day(s).
| Time | Temp. | Humidity | Pressure | Rain* | Wind** | Luminosity | Snow |
|---|---|---|---|---|---|---|---|
| 1788556804 | 25.56° C | 60% | 1007.3 hPa | 0 mm | - | 69 W/m² | - |
| 1788556498 | 26.11° C | 55% | 1007.2 hPa | 0 mm | - | 157 W/m² | - |
| 1788556194 | 25.56° C | 59% | 1007.3 hPa | 0 mm | - | 94 W/m² | - |
| 1788555893 | 25° C | 60% | 1007.2 hPa | 0 mm | - | 53 W/m² | - |
| 1788555589 | 25° C | 60% | 1007.1 hPa | 0 mm | - | 45 W/m² | - |
| 1788555284 | 25.56° C | 59% | 1007.2 hPa | 0 mm | - | 48 W/m² | - |
| 1788554982 | 25.56° C | 58% | 1007.2 hPa | 0 mm | - | 58 W/m² | - |
| 1788554677 | 26.11° C | 58% | 1007 hPa | 0 mm | - | 58 W/m² | - |
| 1788554373 | 27.22° C | 56% | 1007 hPa | 0 mm | - | 117 W/m² | - |
| 1788554069 | 26.67° C | 57% | 1007.1 hPa | 0 mm | - | 127 W/m² | - |
| 1788553765 | 26.67° C | 57% | 1007.2 hPa | 0 mm | - | 76 W/m² | - |
| 1788553461 | 27.22° C | 57% | 1007.2 hPa | 0 mm | - | 159 W/m² | - |
| 1788553157 | 27.22° C | 55% | 1007.3 hPa | 0 mm | - | 116 W/m² | - |
| 1788552851 | 26.67° C | 54% | 1007.3 hPa | 0 mm | - | 400 W/m² | - |
| 1788552547 | 26.67° C | 55% | 1007 hPa | 0 mm | - | 118 W/m² | - |
| 1788552245 | 28.33° C | 56% | 1007.2 hPa | 0 mm | - | 209 W/m² | - |
| 1788551940 | 28.89° C | 58% | 1007.2 hPa | 0 mm | - | 480 W/m² | - |
| 1788551638 | 27.22° C | 60% | 1007.3 hPa | 0 mm | - | 501 W/m² | - |
| 1788551333 | 26.67° C | 60% | 1007.2 hPa | 0 mm | - | 262 W/m² | - |
| 1788551032 | 26.11° C | 59% | 1007.3 hPa | 0 mm | - | 195 W/m² | - |
| 1788550727 | 26.67° C | 60% | 1007.1 hPa | 0 mm | - | 164 W/m² | - |
| 1788550423 | 28.89° C | 54% | 1007 hPa | 0 mm | - | 622 W/m² | - |
| 1788550118 | 27.78° C | 57% | 1007 hPa | 0 mm | - | 634 W/m² | - |
| 1788549813 | 27.22° C | 55% | 1007 hPa | 0 mm | - | 177 W/m² | - |
| 1788549510 | 27.78° C | 56% | 1007.1 hPa | 0 mm | - | 187 W/m² | - |
* Rain latest hour (hover to see other rain measurements)
** Current wind speed in m/s (hover to see current wind gust speed)